TimeCST,TemperatureF,Dew PointF,Humidity,Sea Level PressureIn,VisibilityMPH,Wind Direction,Wind SpeedMPH,Gust SpeedMPH,PrecipitationIn,Events,Conditions,WindDirDegrees,DateUTC
12:35 AM,40.8,25.7,55,30.29,10.0,South,10.4,-,N/A,,Clear,180,2013-01-10 06:35:00
12:55 AM,39.7,26.1,58,30.29,10.0,South,13.8,-,N/A,,Clear,190,2013-01-10 06:55:00
2:35 AM,36.0,25.2,65,30.28,10.0,South,6.9,-,N/A,,Clear,170,2013-01-10 08:35:00
2:55 AM,35.8,24.4,63,30.27,10.0,South,8.1,-,N/A,,Clear,170,2013-01-10 08:55:00
3:15 AM,36.0,24.4,63,30.26,10.0,South,6.9,-,N/A,,Clear,180,2013-01-10 09:15:00
3:35 AM,35.1,24.4,65,30.26,10.0,South,6.9,-,N/A,,Clear,170,2013-01-10 09:35:00
4:15 AM,34.0,23.7,66,30.24,10.0,South,6.9,-,N/A,,Clear,170,2013-01-10 10:15:00
4:35 AM,33.3,23.5,68,30.23,10.0,South,9.2,-,N/A,,Clear,170,2013-01-10 10:35:00
4:55 AM,34.9,23.5,63,30.23,10.0,South,9.2,-,N/A,,Clear,170,2013-01-10 10:55:00
5:15 AM,36.7,23.7,59,30.22,10.0,South,11.5,-,N/A,,Clear,170,2013-01-10 11:15:00
5:35 AM,34.9,23.0,62,30.22,10.0,SSE,4.6,-,N/A,,Clear,150,2013-01-10 11:35:00
6:15 AM,33.1,22.8,66,30.20,10.0,SSE,4.6,-,N/A,,Clear,160,2013-01-10 12:15:00
6:35 AM,32.0,22.1,67,30.20,10.0,SSE,4.6,-,N/A,,Clear,160,2013-01-10 12:35:00
6:55 AM,31.8,21.6,66,30.19,10.0,Calm,Calm,-,N/A,,Clear,0,2013-01-10 12:55:00
7:35 AM,30.6,21.4,69,30.18,10.0,Calm,Calm,-,N/A,,Clear,0,2013-01-10 13:35:00
7:55 AM,32.4,22.5,67,30.17,10.0,South,3.5,-,N/A,,Clear,170,2013-01-10 13:55:00
8:15 AM,30.6,22.5,72,30.16,10.0,Calm,Calm,-,N/A,,Clear,0,2013-01-10 14:15:00
8:35 AM,35.4,22.6,60,30.16,10.0,South,5.8,-,N/A,,Clear,180,2013-01-10 14:35:00
8:55 AM,36.5,23.0,58,30.14,10.0,SSE,6.9,-,N/A,,Clear,160,2013-01-10 14:55:00
9:15 AM,38.3,21.7,51,30.14,10.0,SSE,4.6,-,N/A,,Clear,150,2013-01-10 15:15:00
9:55 AM,39.4,21.9,50,30.12,10.0,SSE,8.1,-,N/A,,Clear,160,2013-01-10 15:55:00
10:15 AM,39.2,23.0,52,30.10,10.0,SE,4.6,-,N/A,,Clear,140,2013-01-10 16:15:00
10:35 AM,39.6,23.0,52,30.09,10.0,Calm,Calm,-,N/A,,Clear,0,2013-01-10 16:35:00
10:55 AM,39.6,23.5,53,30.07,10.0,ESE,4.6,-,N/A,,Clear,110,2013-01-10 16:55:00
11:15 AM,39.7,23.0,51,30.05,10.0,SE,4.6,-,N/A,,Clear,130,2013-01-10 17:15:00
11:35 AM,40.3,22.6,49,30.04,10.0,SSE,5.8,-,N/A,,Mostly Cloudy,150,2013-01-10 17:35:00
11:55 AM,40.1,23.5,52,30.02,10.0,SSE,4.6,-,N/A,,Overcast,160,2013-01-10 17:55:00
12:15 PM,39.7,25.7,57,29.98,7.0,SSE,3.5,-,N/A,,Light Drizzle,150,2013-01-10 18:15:00
12:35 PM,39.7,25.9,58,29.94,10.0,ESE,3.5,-,N/A,,Overcast,120,2013-01-10 18:35:00
12:55 PM,39.6,25.0,56,29.95,10.0,East,3.5,-,N/A,,Overcast,100,2013-01-10 18:55:00
1:35 PM,39.6,25.3,57,29.93,10.0,SE,3.5,-,N/A,,Overcast,130,2013-01-10 19:35:00
1:55 PM,39.2,25.9,59,29.92,10.0,ESE,3.5,-,N/A,,Light Drizzle,120,2013-01-10 19:55:00
2:15 PM,38.3,27.9,66,29.92,7.0,Calm,Calm,-,N/A,Rain,Light Rain,0,2013-01-10 20:15:00
2:35 PM,37.6,28.9,71,29.92,2.5,Calm,Calm,-,N/A,Rain,Rain,0,2013-01-10 20:35:00
2:55 PM,37.2,30.4,76,29.90,3.0,Calm,Calm,-,0.01,Rain,Light Rain,0,2013-01-10 20:55:00
3:15 PM,36.9,30.2,77,29.90,3.0,SE,8.1,-,0.01,Rain,Rain,130,2013-01-10 21:15:00
3:35 PM,36.7,30.7,79,29.88,5.0,ESE,6.9,-,0.01,Rain,Light Rain,120,2013-01-10 21:35:00
3:55 PM,37.0,30.6,77,29.87,10.0,SE,10.4,-,0.02,,Overcast,130,2013-01-10 21:55:00
4:15 PM,37.0,30.2,76,29.87,10.0,SE,9.2,17.3,N/A,,Overcast,130,2013-01-10 22:15:00
4:35 PM,37.2,30.6,77,29.85,10.0,SE,8.1,-,N/A,,Overcast,130,2013-01-10 22:35:00
4:55 PM,36.7,30.2,77,29.83,10.0,ESE,6.9,-,N/A,,Overcast,110,2013-01-10 22:55:00
5:15 PM,36.7,30.7,79,29.81,10.0,ESE,9.2,-,N/A,,Overcast,110,2013-01-10 23:15:00
5:35 PM,36.7,31.5,81,29.81,10.0,SE,11.5,-,N/A,,Overcast,140,2013-01-10 23:35:00
5:55 PM,36.5,31.8,83,29.80,10.0,SE,15.0,-,N/A,,Overcast,140,2013-01-10 23:55:00
6:15 PM,36.5,32.0,84,29.79,5.0,SE,9.2,-,N/A,,Overcast,140,2013-01-11 00:15:00
6:35 PM,36.5,32.0,84,29.78,7.0,Calm,Calm,-,N/A,,Overcast,0,2013-01-11 00:35:00
6:55 PM,36.5,32.0,84,29.76,5.0,SSE,4.6,-,N/A,,Drizzle,150,2013-01-11 00:55:00
7:15 PM,36.7,32.4,84,29.76,5.0,SSE,8.1,-,N/A,,Haze,160,2013-01-11 01:15:00
7:35 PM,36.7,32.5,85,29.77,1.5,South,5.8,-,N/A,,Overcast,180,2013-01-11 01:35:00
7:55 PM,37.0,33.1,86,29.75,0.8,South,6.9,-,N/A,,Overcast,170,2013-01-11 01:55:00
8:15 PM,37.0,33.1,86,29.74,0.8,South,6.9,-,N/A,,Overcast,170,2013-01-11 02:15:00
8:55 PM,36.9,33.1,86,29.75,0.5,Calm,Calm,-,N/A,Fog,Fog,0,2013-01-11 02:55:00
9:15 PM,36.7,32.9,86,29.73,0.5,South,6.9,-,N/A,Fog,Fog,180,2013-01-11 03:15:00
9:35 PM,36.7,32.9,86,29.73,0.5,South,6.9,-,N/A,Fog,Fog,170,2013-01-11 03:35:00
9:55 PM,36.7,32.9,86,29.72,1.0,South,6.9,-,N/A,,Overcast,170,2013-01-11 03:55:00
10:15 PM,37.0,33.3,86,29.71,1.5,South,5.8,-,N/A,,Overcast,170,2013-01-11 04:15:00
10:35 PM,37.4,33.4,86,29.71,1.8,South,5.8,-,N/A,,Overcast,170,2013-01-11 04:35:00
10:55 PM,37.4,33.6,86,29.69,2.5,South,6.9,-,N/A,,Overcast,170,2013-01-11 04:55:00
11:15 PM,37.4,33.8,87,29.69,2.5,South,5.8,-,N/A,,Overcast,170,2013-01-11 05:15:00
11:35 PM,37.4,33.8,87,29.68,3.0,South,4.6,-,N/A,,Overcast,170,2013-01-11 05:35:00
11:55 PM,37.4,33.8,87,29.66,3.0,SSE,4.6,-,N/A,,Overcast,160,2013-01-11 05:55:00